Regional Weather Roundup
Issued by NWS

Home | Current Version | Previous Version | Graphics & Text | Print | Product List | Glossary On
Versions: 1 2 3 4 5 6 7 8 9 10 11 12 13 14 15 16 17 18 19 20 21 22 23 24 25 26 27 28 29 30 31 32 33 34 35 36 37 38 39 40 41 42 43 44 45 46 47 48 49 50
000
ASUS43 KDMX 220407
RWRIA

WEATHER ROUNDUP FOR IOWA
NATIONAL WEATHER SERVICE DES MOINES IA
1000 PM CST SUN DEC 21 2014

NOTE: "FAIR" INDICATES FEW OR NO CLOUDS BELOW 12,000 FEET WITH NO
SIGNIFICANT WEATHER AND/OR OBSTRUCTIONS TO VISIBILITY.

* - THESE STATIONS ARE NOT NWS STATIONS...THUS NOT UNDER NWS
QUALITY CONTROL.  THEY ALSO DO NOT REPORT WEATHER SUCH
AS PRECIPITATION OR FOG.

IAZ001>003-012>014-020>022-031>034-043>046-220500-
   NORTHWEST IOWA

CITY           SKY/WX    TMP DP  RH WIND       PRES   REMARKS
CARROLL *      CLOUDY    41  41 100 S13       29.69F FOG
CHEROKEE *     CLOUDY    39  39 100 S13       29.64F FOG     WCI  32
DENISON *      CLOUDY    41  41 100 S14G20    29.64F FOG
LE MARS *      CLOUDY    41  41 100 S17       29.60F
ORANGE CITY *  CLOUDY    39  37  93 S15       29.59F FOG     WCI  31
SHELDON *      CLOUDY    37  37 100 S20       29.59F FOG     WCI  27
SIOUX CITY     CLOUDY    41  39  93 SE12      29.61F FOG
SPENCER        CLOUDY    39  37  92 S15       29.64F FOG     WCI  31
STORM LAKE *   CLOUDY    39  39 100 S17G25    29.65F FOG     WCI  30
$$

IAZ055>058-069>071-079>083-090>094-220500-
   SOUTHWEST IOWA

CITY           SKY/WX    TMP DP  RH WIND       PRES   REMARKS
ATLANTIC *     CLOUDY    41  41 100 S16       29.69F FOG
AUDUBON *      CLOUDY    39  36  87 S12G18    29.69F FOG     WCI  32
CLARINDA *     CLOUDY    43  43 100 S12G21    29.73F FOG
COUNCIL BLFS * CLOUDY    41  41 100 S17       29.65S FOG
CRESTON *      LGT RAIN  41  41 100 S15       29.73F
HARLAN  *      CLOUDY    41  41 100 S15G22    29.70F FOG
LAMONI         LGT RAIN  41  40  96 S13G21    29.77S
RED OAK *      CLOUDY    43  43 100 S16       29.69F FOG
SHENANDOAH *   CLOUDY    43  43 100 S16G23    29.70F FOG
$$

IAZ047>049-059>061-072>074-084-220500-
   CENTRAL IOWA

CITY           SKY/WX    TMP DP  RH WIND       PRES   REMARKS
AMES           CLOUDY    41  38  89 S15       29.76S
ANKENY *       CLOUDY    43  39  87 S13       29.77S
CHARITON *     CLOUDY    41  39  93 S16       29.78F
DES MOINES     CLOUDY    44  39  82 S17       29.77F
GRINNELL*      CLOUDY    39  37  93 SE15      29.80F WCI  31
KNOXVILLE *    CLOUDY    41  39  93 S14G20    29.78S
MARSHALLTOWN   CLOUDY    40  38  93 SE14      29.78F WCI  32
PELLA *        CLOUDY    41  39  93 S16       29.81S
PERRY *        CLOUDY    41  39  93 S14       29.73S
$$

IAZ004>006-015-016-023>025-035-036-220500-
   NORTH CENTRAL IOWA

CITY           SKY/WX    TMP DP  RH WIND       PRES   REMARKS
ALGONA *       CLOUDY    39  39 100 S20G26    29.69S FOG     WCI  30
CLARION *      CLOUDY    39  39 100 S16G22    29.73S FOG     WCI  30
ESTHERVILLE    CLOUDY    37  37 100 S16       29.66F FOG     WCI  28
FORT DODGE *   CLOUDY    39  36  87 S10G18    29.72F WCI  32
MASON CITY     CLOUDY    38  37  97 S15       29.75F FOG     WCI  29
FOREST CITY *  CLOUDY    37  36  93 SE13      29.73S FOG     WCI  29
IOWA FALLS *   CLOUDY    39  37  93 SE15      29.77S WCI  31
$$

IAZ007>011-017>019-026>030-037>042-050>054-066-220500-
   NORTHEAST IOWA

CITY           SKY/WX    TMP DP  RH WIND       PRES   REMARKS
CEDAR RAPIDS   LGT RAIN  36  35  96 SE14      29.85F FOG     WCI  27
CHARLES CITY * CLOUDY    39  39 100 SE16G24   29.79S WCI  30
CLINTON *      CLOUDY    34  30  86 SE14      29.95F WCI  24
DECORAH *      CLOUDY    36  36 100 S13G22    29.81S FOG     WCI  27
DUBUQUE        CLOUDY    34  31  88 S16       29.90F FOG     WCI  24
MONTICELLO *   CLOUDY    36  36 100 SE13      29.88F FOG     WCI  27
OELWEIN *      CLOUDY    36  36 100 SE20      29.83S FOG     WCI  25
WATERLOO       CLOUDY    38  36  92 S18       29.81S WCI  28
$$

IAZ064-065-067-068-078-220500-
   EAST CENTRAL IOWA

CITY           SKY/WX    TMP DP  RH WIND       PRES   REMARKS
DAVENPORT      CLOUDY    35  30  82 S17       29.93F WCI  25
IOWA CITY      CLOUDY    38  34  85 SE13      29.89F WCI  30
MT. PLEASANT * CLOUDY    37  34  87 SE15      29.89S WCI  28
MUSCATINE *    CLOUDY    39  32  75 SE10G17   29.91F WCI  32
QUAD CITIES    CLOUDY    36  31  82 SE16      29.92F WCI  26
$$

IAZ062-063-075>077-085>089-095>099-220500-
   SOUTHEAST IOWA

CITY           SKY/WX    TMP DP  RH WIND       PRES   REMARKS
BURLINGTON     CLOUDY    39  33  79 SE12      29.90F WCI  32
FAIRFIELD *    CLOUDY    39  36  87 SE14      29.85F WCI  31
FORT MADISON * CLOUDY    39  36  87 SE9       29.91S WCI  33
KEOKUK *       CLOUDY    41  36  81 SE12      29.89F
OSKALOOSA *    CLOUDY    39  37  93 S13       29.83F WCI  32
CENTERVILLE *  CLOUDY    39  39 100 SE13      29.83S WCI  32
OTTUMWA        CLOUDY    40  38  93 S14       29.83F WCI  32
WASHINGTON *   CLOUDY    39  39 100 SE15G21   29.87S WCI  31
$$

ABBREVIATIONS USED IN REMARKS
   TC - TEMPERATURES IN CELSIUS
  WCI - WIND CHILL INDEX
   HX - HEAT INDEX
  VSB - VISIBILITY
$$




USA.gov is the U.S. government's official web portal to all federal, state and local government web resources and services.